Temperature
19 19 19 19 19 19 19 19 19 19 19 19 19 19 19 19 19 19 19 19 19 19 19 19 18 18 18 18 18 18 18 18 18 18 18 18 18 18 18 18 18 17 18
20 19 19 19 19 19 19 19 19 19 19 19 19 19 19 19 19 19 19 19 19 19 19 19 19 18 18 18 18 18 18 18 18 18 18 18 18 18 18 18 18 17 18
20 19 19 19 19 19 19 19 19 18 19 19 19 19 19 19 19 19 19 19 19 19 19 19 18 18 18 18 18 18 18 18 18 18 18 17 18 18 18 18 18 18 18
19 19 18 19 19 19 19 19 19 19 18 18 18 19 19 19 19 19 19 18 19 18 18 18 18 18 18 18 18 18 18 18 18 18 18 18 17 18 18 18 18 18 18
19 19 19 19 19 19 19 19 19 19 19 19 18 19 19 19 19 19 19 19 19 19 19 19 19 19 18 18 18 18 18 18 18 18 17 17 17 18 18 18 18 18 18
20 19 19 19 19 19 19 19 19 19 19 19 19 19 19 19 19 19 19 19 19 19 19 19 19 19 18 18 18 18 18 18 18 18 17 17 17 18 18 18 18 18 17
20 19 19 19 19 19 19 19 19 19 19 19 19 19 19 19 19 19 19 19 19 19 19 19 19 19 18 18 18 18 18 18 18 18 18 17 17 18 18 18 18 17 17
20 19 19 20 19 19 19 19 19 19 19 19 19 19 19 19 19 19 19 19 19 19 19 19 19 19 19 18 18 18 18 18 18 18 18 18 18 18 18 18 18 18 18
20 19 19 19 19 19 19 19 19 19 19 19 19 19 19 19 19 19 19 19 19 19 19 19 19 19 19 18 18 18 18 18 18 18 18 18 18 18 18 18 18 18 18
20 19 19 19 19 19 19 19 19 19 19 19 19 19 19 19 19 19 19 19 19 19 19 19 19 19 19 19 18 18 18 18 18 18 18 18 18 18 18 18 18 18 18
20 19 20 19 19 19 19 19 19 19 19 19 18 19 19 18 18 18 18 19 19 19 19 19 19 19 19 18 18 18 18 18 18 18 18 18 18 18 18 18 18 18 18
20 20 20 19 19 19 19 19 19 18 18 18 18 18 18 18 18 18 19 19 19 19 19 19 19 19 18 18 18 18 18 18 18 18 18 18 18 18 18 18 18 18 18
20 20 20 19 19 19 19 19 19 19 19 18 18 18 18 18 18 18 18 18 18 19 18 18 18 18 18 18 18 18 18 18 18 18 18 18 18 18 18 18 18 18 18
20 20 20 19 19 19 19 19 19 19 19 19 18 19 18 18 18 18 18 18 18 18 18 19 18 18 18 18 18 18 18 18 18 18 18 18 18 18 18 18 18 18 18
20 20 20 19 19 19 19 19 19 19 19 19 19 19 19 18 18 18 18 18 18 18 19 19 18 18 18 18 18 18 18 18 18 18 18 18 18 18 18 18 18 18 18
20 20 20 19 19 19 19 19 19 19 19 19 19 18 19 18 19 19 19 18 18 19 19 18 19 18 18 18 18 18 18 18 18 18 18 18 18 18 18 18 18 18 18
21 20 20 20 19 19 19 19 19 19 19 19 19 19 19 19 19 19 18 18 18 18 18 18 18 18 18 18 18 18 18 18 18 18 18 18 18 18 18 18 18 18 18
21 20 20 20 19 19 19 19 19 19 19 19 19 19 19 19 19 19 18 18 19 18 18 18 18 18 18 18 18 18 18 18 18 18 18 18 18 18 18 18 18 18 18
20 20 20 20 20 20 19 19 19 19 19 19 19 19 19 19 18 18 18 18 19 18 18 19 18 18 18 18 18 19 19 18 18 18 18 18 18 18 17 18 18 18 18
21 20 20 20 20 20 19 19 19 19 19 19 19 19 19 19 19 18 18 19 18 18 18 18 18 18 18 18 18 18 18 18 18 18 18 18 18 18 18 17 17 17 17
21 21 21 20 20 20 20 19 19 19 19 19 19 19 19 19 19 19 18 19 18 18 18 18 18 18 18 18 18 19 19 19 18 18 18 18 18 18 18 17 17 17 17
21 21 21 20 20 20 20 20 19 19 19 19 19 19 19 19 19 19 18 18 18 18 18 18 18 18 18 18 18 19 20 19 18 19 18 18 18 18 18 17 17 17 17
21 21 21 21 20 20 20 19 19 19 19 19 19 19 19 19 19 19 18 18 18 18 18 18 18 18 18 18 18 18 19 20 19 19 18 18 18 17 17 17 17 17 17
21 21 21 21 21 20 20 19 19 19 19 19 19 18 18 18 18 18 18 18 18 18 18 18 18 17 17 18 18 18 18 18 18 19 18 18 17 17 17 17 17 17 17
21 21 20 20 20 20 20 20 19 19 19 19 18 18 18 18 18 18 18 18 18 18 18 17 17 17 17 17 18 18 17 17 17 18 18 18 18 17 17 17 17 17 16
21 21 20 20 21 20 20 19 19 19 19 18 18 18 18 18 18 18 18 18 17 17 17 17 17 17 17 17 17 17 17 17 18 18 18 18 18 17 17 17 17 17 16
Wind_Speed
4 6 9 6 6 7 8 9 11 11 11 10 10 10 10 9 9 10 9 8 8 8 8 8 8 8 8 8 7 7 7 8 9 9 9 9 9 8 7 8 9 8 8
5 8 10 7 7 8 9 10 11 11 10 10 10 10 9 8 8 8 8 8 8 8 8 7 8 8 7 7 7 7 7 7 8 9 9 9 9 9 8 7 6 6 9
6 8 10 8 8 7 8 10 10 10 10 9 10 9 9 8 8 8 8 7 7 7 7 7 7 6 7 7 7 7 7 7 8 8 10 9 9 10 9 7 6 7 8
7 8 9 9 8 8 8 9 9 9 9 9 8 8 8 8 8 8 8 7 7 7 7 7 6 6 6 6 6 6 6 6 7 9 9 6 7 9 9 9 8 8 8
7 8 11 8 8 8 8 8 8 9 9 8 8 7 7 7 7 7 7 7 6 6 6 6 6 5 5 5 5 6 6 6 7 9 6 5 5 7 8 8 8 9 9
7 8 11 8 7 7 8 8 8 8 8 8 7 7 7 7 6 6 6 6 6 6 6 6 6 5 5 5 5 5 5 6 9 7 5 5 5 7 8 9 9 9 9
7 7 10 8 7 7 7 7 7 8 8 7 6 6 5 5 5 5 5 6 6 6 5 5 5 5 5 6 6 5 6 6 7 4 5 5 4 7 8 8 9 10 10
7 7 9 9 7 6 6 6 6 6 6 6 5 5 5 4 4 4 4 4 5 5 5 5 5 5 5 6 6 6 6 8 6 4 5 4 5 6 8 8 9 10 11
6 6 7 8 8 7 6 6 6 5 5 5 5 4 3 3 3 3 3 3 4 5 5 5 5 5 5 6 6 6 6 8 7 4 4 3 5 6 8 9 9 10 11
5 5 5 5 5 6 8 8 5 4 4 4 4 4 3 4 4 4 5 4 3 4 5 5 5 5 6 6 6 7 8 9 6 4 3 2 4 6 7 8 9 10 10
5 4 4 5 5 4 5 7 7 7 5 5 5 5 4 3 2 4 3 3 3 3 4 5 6 6 7 8 8 9 9 5 4 3 2 3 2 4 6 8 9 9 10
5 4 3 4 4 3 3 4 4 4 5 3 2 2 2 1 1 1 5 3 3 4 5 6 7 9 10 6 8 10 6 4 4 3 2 4 4 6 6 7 7 9 10
4 4 4 3 2 2 3 2 2 2 3 3 2 1 1 1 1 1 2 3 3 5 4 4 6 4 4 2 3 4 4 4 3 3 2 4 6 7 7 7 7 7 9
4 4 3 4 3 2 2 2 2 2 2 1 2 1 0 0 0 0 1 1 2 2 2 2 2 2 3 3 3 4 4 4 3 2 1 4 5 6 7 7 7 8 9
4 4 4 3 3 3 2 1 1 1 1 1 0 1 1 1 1 1 1 1 2 1 1 1 1 1 2 3 3 3 4 4 4 3 2 5 6 7 7 8 8 8 8
4 4 4 5 4 3 2 2 1 1 1 1 0 0 2 1 1 1 1 1 1 1 1 1 1 2 2 2 3 3 4 4 3 4 4 4 7 7 8 8 8 8 8
4 4 5 5 4 4 3 2 1 1 1 0 0 0 1 1 1 2 1 1 1 1 1 2 2 2 2 2 3 3 3 3 4 4 4 4 5 8 8 7 8 8 8
4 5 5 5 5 4 3 2 1 0 0 0 0 1 0 1 1 2 1 1 1 2 1 1 1 2 2 2 2 3 3 3 4 5 5 4 4 3 5 7 7 7 7
5 5 6 5 5 5 4 3 2 1 0 1 0 0 0 0 1 2 1 1 2 1 1 2 1 2 2 2 3 3 3 3 4 4 4 4 3 3 3 5 7 6 6
6 6 6 6 5 4 3 3 2 1 1 1 0 0 1 1 1 2 1 1 3 1 1 1 1 2 2 2 3 2 3 3 3 3 4 3 3 3 3 3 4 5 6
6 6 7 7 6 5 4 3 3 2 2 1 1 1 1 2 1 2 2 1 2 1 2 2 2 1 2 2 3 2 2 3 2 3 3 3 2 2 2 2 3 3 3
7 7 7 7 6 6 4 3 2 2 2 2 1 1 1 2 2 2 2 2 2 1 2 2 2 3 2 2 3 3 2 2 2 2 2 3 3 2 2 2 1 2 3
8 8 7 7 7 6 5 4 3 2 2 2 2 2 1 2 2 2 2 2 2 2 2 2 2 3 3 3 2 3 3 2 2 1 1 2 2 2 2 2 2 1 2
8 8 7 7 6 6 6 5 4 3 3 2 2 1 1 1 2 2 2 2 3 2 2 3 2 2 4 4 2 3 3 4 3 3 2 2 3 3 3 3 2 2 3
7 7 7 7 6 6 6 6 5 4 3 2 1 1 2 1 1 2 1 2 2 2 2 2 2 3 3 4 4 3 3 3 5 5 4 3 3 3 3 3 3 3 2
6 6 6 7 7 6 6 6 5 3 2 2 2 2 2 2 1 1 2 2 2 2 2 2 2 3 4 4 5 4 4 4 4 4 5 5 4 3 3 3 3 3 2
Wind_Direction
97 102 108 116 110 107 109 111 126 134 134 135 139 140 140 141 140 139 139 136 135 135 138 147 153 154 157 161 163 170 168 165 164 164 165 166 170 173 173 176 182 167 148
106 107 112 115 111 107 107 113 120 124 127 133 136 140 142 143 143 145 144 141 140 140 142 145 151 155 159 159 161 166 167 169 172 173 177 179 181 181 185 194 209 154 157
108 113 119 113 112 112 111 115 118 121 123 128 133 140 143 144 147 150 147 145 144 143 145 147 143 149 156 159 162 167 171 173 175 184 201 199 181 182 189 192 188 176 172
111 115 112 113 111 112 116 118 122 125 127 132 137 144 146 144 145 147 147 148 150 151 149 148 149 148 151 157 170 174 177 181 189 206 212 205 190 174 191 194 191 188 186
114 111 108 114 108 109 112 113 117 124 128 132 136 141 142 140 140 144 150 151 150 152 156 158 161 164 160 163 170 179 187 195 208 223 218 213 202 170 190 195 194 191 190
117 113 110 114 110 111 114 112 112 116 121 125 129 132 135 140 146 148 154 158 159 163 169 173 175 179 177 179 185 188 193 207 222 217 217 215 196 172 190 196 196 194 195
116 113 116 117 116 114 117 117 114 115 116 118 124 130 133 140 150 158 163 169 175 180 183 188 190 192 191 191 196 203 210 228 241 220 218 218 194 179 194 201 201 201 203
118 117 120 129 125 121 123 121 117 116 118 121 124 128 132 139 155 167 174 183 187 187 190 197 201 207 206 205 208 214 225 247 238 228 222 210 181 187 203 208 208 208 209
117 120 125 136 143 147 139 127 122 119 121 122 124 131 140 146 160 172 182 192 194 193 195 202 206 213 214 216 218 223 232 249 256 241 234 224 171 198 211 211 212 213 213
125 124 126 128 136 149 147 144 144 138 131 134 139 149 172 182 185 190 193 178 196 203 208 211 213 215 220 224 224 226 233 241 242 232 234 186 166 212 223 221 218 217 215
138 135 137 135 142 141 136 141 160 164 164 179 164 163 196 190 165 178 123 134 192 211 218 223 227 224 226 218 219 229 236 240 246 251 245 123 194 228 229 226 225 224 222
157 155 147 138 142 143 139 140 156 155 151 168 146 163 176 146 163 164 136 172 200 218 219 219 228 224 234 221 204 222 238 237 245 241 202 155 216 224 225 231 235 231 226
159 159 156 144 151 151 144 146 131 133 141 158 146 171 168 215 170 193 178 177 197 218 223 206 219 227 231 244 244 231 249 257 253 251 186 175 214 221 225 233 238 237 230
157 159 152 149 155 159 147 130 144 135 132 127 129 240 241 221 287 261 250 266 234 226 240 253 240 233 244 248 251 252 248 248 248 255 196 174 210 225 234 238 237 237 236
160 163 161 164 156 162 159 196 144 135 124 115 155 202 250 217 230 289 294 275 274 276 242 250 260 251 249 243 255 254 255 246 251 251 216 180 209 227 235 239 237 235 237
172 168 167 177 166 175 183 188 199 192 153 221 197 245 251 242 232 265 252 264 271 267 301 287 274 261 268 269 262 258 263 257 251 255 253 204 201 217 229 233 232 231 232
177 167 171 175 169 177 191 202 186 185 167 182 96 101 254 237 218 236 248 260 303 282 260 261 274 259 253 247 252 256 251 254 254 252 252 250 225 202 206 216 227 230 231
182 175 178 176 165 168 175 191 205 139 96 185 26 107 109 270 248 251 272 298 299 278 276 272 273 287 290 277 264 259 253 239 239 239 237 236 248 238 199 201 220 229 235
183 181 181 181 174 175 176 181 189 156 240 261 219 83 76 297 277 268 299 327 283 284 293 298 329 300 299 291 272 251 255 247 243 239 237 235 231 242 240 189 204 215 232
179 181 184 179 180 181 179 178 186 185 212 230 234 32 313 290 278 291 263 306 291 294 300 321 312 306 297 290 290 285 262 255 243 243 245 238 226 233 242 246 228 209 211
179 181 184 184 180 185 187 192 189 198 219 219 214 221 250 278 274 284 300 290 292 304 313 302 293 274 290 309 288 278 245 229 229 231 239 248 234 233 239 247 261 275 218
185 186 185 186 188 192 191 192 200 213 232 218 237 218 262 263 269 254 282 280 279 284 283 299 296 299 293 288 293 293 279 220 215 228 226 233 242 243 241 230 236 274 290
192 193 192 190 190 197 195 192 190 197 243 224 213 217 254 264 260 286 286 282 284 277 279 279 273 277 289 285 291 295 295 300 313 227 229 240 246 255 255 247 230 243 267
198 193 191 189 190 193 195 203 210 219 237 248 250 243 254 253 262 262 280 289 283 278 289 277 277 282 277 280 274 272 287 307 287 277 236 233 240 244 258 267 259 243 251
196 193 189 187 190 191 199 203 213 229 237 246 245 240 266 246 259 270 278 284 279 279 290 300 303 289 284 290 291 286 275 262 259 271 280 279 263 253 255 267 275 266 253
183 187 185 182 186 187 196 204 207 218 242 253 250 260 257 253 252 264 273 284 275 280 273 266 275 269 282 290 291 288 282 279 273 268 271 274 279 279 277 280 278 276 269
Height
1515 1514 1512 1512 1512 1512 1511 1509 1509 1513 1517 1519 1521 1523 1524 1526 1527 1528 1529 1530 1531 1532 1533 1534 1536 1536 1537 1538 1539 1540 1541 1542 1542 1543 1544 1544 1545 1546 1546 1546 1547 1548 1548
1515 1515 1513 1514 1514 1514 1514 1514 1515 1517 1519 1521 1522 1524 1525 1527 1528 1529 1530 1531 1532 1533 1534 1535 1536 1537 1538 1539 1539 1540 1541 1542 1543 1543 1544 1544 1545 1545 1546 1546 1547 1548 1548
1516 1516 1515 1515 1516 1516 1517 1517 1518 1519 1521 1523 1524 1525 1527 1528 1529 1530 1531 1532 1532 1533 1534 1535 1536 1537 1538 1539 1539 1540 1541 1541 1542 1543 1544 1545 1545 1545 1545 1546 1546 1547 1547
1518 1518 1517 1517 1517 1518 1519 1519 1520 1521 1523 1524 1526 1527 1528 1529 1530 1531 1532 1532 1533 1533 1534 1535 1536 1537 1538 1539 1540 1540 1541 1541 1542 1543 1544 1545 1545 1544 1545 1545 1546 1546 1547
1519 1520 1518 1518 1519 1520 1520 1521 1522 1523 1524 1526 1527 1528 1529 1530 1531 1531 1532 1532 1533 1534 1535 1536 1537 1538 1538 1539 1539 1540 1540 1541 1541 1542 1544 1544 1544 1543 1544 1544 1544 1545 1546
1521 1522 1520 1520 1520 1521 1522 1523 1524 1525 1526 1527 1528 1529 1529 1530 1531 1531 1532 1533 1533 1534 1535 1536 1537 1538 1538 1539 1539 1540 1540 1540 1541 1542 1542 1543 1543 1542 1542 1543 1543 1544 1545
1523 1523 1522 1521 1522 1523 1523 1524 1525 1526 1527 1527 1528 1529 1530 1531 1531 1532 1532 1533 1533 1534 1535 1536 1537 1537 1538 1539 1539 1539 1540 1540 1541 1541 1541 1542 1541 1541 1541 1542 1542 1543 1544
1524 1524 1523 1523 1523 1524 1525 1525 1526 1527 1528 1528 1529 1530 1530 1531 1531 1532 1532 1532 1533 1534 1535 1536 1536 1537 1538 1538 1539 1539 1539 1539 1541 1541 1541 1541 1540 1539 1540 1540 1541 1541 1542
1525 1526 1526 1526 1525 1525 1526 1526 1527 1528 1528 1529 1530 1530 1531 1531 1532 1532 1532 1532 1533 1533 1534 1535 1536 1537 1537 1538 1538 1538 1538 1538 1540 1540 1540 1540 1538 1538 1538 1539 1539 1540 1540
1526 1526 1527 1527 1527 1528 1528 1527 1528 1528 1529 1530 1530 1531 1532 1532 1532 1532 1532 1532 1533 1533 1534 1535 1536 1536 1537 1537 1537 1538 1538 1538 1539 1540 1539 1538 1537 1537 1537 1537 1537 1538 1539
1526 1527 1528 1528 1528 1529 1530 1529 1529 1529 1530 1531 1531 1532 1532 1533 1533 1533 1533 1532 1533 1533 1534 1534 1535 1536 1536 1537 1537 1537 1537 1538 1538 1538 1538 1536 1536 1535 1535 1535 1535 1536 1537
1527 1528 1528 1528 1529 1529 1530 1530 1530 1531 1531 1532 1532 1532 1533 1533 1533 1534 1533 1533 1533 1533 1533 1534 1534 1535 1535 1537 1536 1536 1537 1537 1537 1537 1536 1534 1534 1533 1533 1533 1534 1534 1535
1527 1528 1529 1529 1529 1530 1531 1531 1531 1531 1531 1532 1532 1533 1533 1534 1534 1534 1534 1534 1534 1533 1534 1534 1534 1535 1536 1536 1536 1536 1536 1536 1536 1535 1534 1532 1532 1532 1532 1532 1532 1532 1532
1527 1528 1529 1529 1529 1529 1531 1531 1531 1532 1532 1533 1533 1533 1533 1534 1534 1534 1534 1534 1534 1534 1533 1534 1534 1534 1534 1534 1534 1534 1534 1534 1534 1534 1532 1531 1530 1530 1530 1530 1530 1530 1531
1527 1528 1529 1529 1529 1530 1530 1531 1532 1532 1533 1533 1533 1533 1533 1534 1534 1534 1533 1533 1533 1533 1533 1533 1533 1533 1532 1532 1532 1532 1532 1532 1532 1532 1531 1530 1529 1529 1529 1529 1529 1529 1529
1527 1528 1529 1529 1529 1529 1530 1531 1531 1533 1533 1533 1533 1533 1533 1533 1533 1533 1533 1533 1533 1532 1532 1532 1532 1531 1531 1531 1531 1531 1530 1530 1531 1530 1530 1529 1528 1527 1527 1527 1527 1527 1527
1527 1528 1528 1529 1529 1530 1530 1531 1532 1533 1533 1533 1533 1533 1532 1533 1533 1533 1533 1533 1532 1532 1531 1531 1530 1530 1530 1530 1529 1529 1529 1528 1528 1528 1528 1528 1528 1526 1526 1525 1526 1526 1526
1527 1527 1528 1529 1529 1530 1530 1531 1532 1533 1533 1533 1533 1533 1533 1533 1533 1533 1533 1533 1532 1531 1531 1530 1530 1529 1529 1529 1528 1528 1528 1527 1526 1526 1526 1526 1526 1526 1525 1524 1524 1524 1524
1525 1526 1527 1529 1529 1530 1530 1531 1532 1532 1532 1533 1533 1533 1533 1532 1532 1532 1532 1532 1531 1531 1530 1530 1529 1528 1528 1527 1527 1526 1526 1525 1525 1525 1524 1524 1524 1523 1523 1522 1522 1521 1521
1524 1525 1526 1527 1528 1529 1530 1530 1531 1531 1532 1532 1532 1532 1532 1532 1531 1532 1531 1530 1530 1530 1529 1528 1528 1527 1526 1526 1526 1525 1524 1523 1523 1523 1523 1523 1522 1521 1521 1520 1520 1519 1518
1523 1524 1525 1526 1527 1528 1529 1530 1530 1531 1531 1532 1532 1531 1531 1531 1531 1530 1531 1529 1529 1529 1528 1527 1527 1526 1525 1525 1524 1523 1523 1522 1521 1521 1520 1521 1520 1520 1519 1518 1518 1518 1517
1522 1522 1524 1525 1526 1527 1528 1529 1529 1530 1530 1530 1530 1530 1530 1530 1529 1530 1528 1528 1528 1527 1526 1526 1525 1525 1525 1524 1523 1522 1522 1522 1520 1520 1519 1519 1518 1518 1517 1517 1516 1515 1514
1520 1521 1523 1523 1525 1526 1527 1528 1528 1529 1529 1529 1529 1529 1528 1528 1528 1527 1527 1527 1526 1526 1526 1524 1523 1523 1524 1523 1522 1523 1521 1519 1519 1519 1518 1517 1516 1516 1515 1515 1514 1513 1512
1519 1520 1521 1522 1523 1524 1525 1526 1527 1527 1528 1528 1528 1528 1527 1527 1526 1526 1526 1525 1524 1524 1524 1523 1523 1522 1522 1522 1522 1520 1520 1520 1519 1517 1517 1516 1515 1514 1513 1513 1512 1511 1510
1517 1518 1519 1520 1521 1522 1524 1525 1525 1526 1526 1527 1526 1526 1526 1526 1525 1525 1524 1523 1522 1522 1522 1521 1521 1520 1520 1520 1520 1520 1519 1518 1517 1517 1515 1515 1514 1513 1512 1511 1510 1509 1507
1516 1517 1518 1518 1519 1520 1521 1522 1523 1523 1524 1524 1524 1525 1525 1525 1524 1523 1522 1521 1521 1520 1519 1519 1518 1518 1518 1518 1517 1517 1517 1516 1515 1515 1513 1512 1511 1511 1510 1508 1508 1506 1505